Weather Roundup
Issued by NWS

Home | Current Version | Previous Version | Text Only | Print | Product List | Glossary On
Versions: 1 2 3 4 5 6 7 8 9 10 11 12 13 14 15 16 17 18 19 20 21 22 23 24 25 26 27 28 29 30 31 32 33 34 35 36 37 38 39 40 41 42 43 44 45 46 47 48 49 50
000
NZUS93 KARX 221210
HRRWXR

CURRENT HOURLY OBSERVATIONS ACROSS
MUCH OF THE UPPER MISSISSIPPI VALLEY
NATIONAL WEATHER SERVICE LA CROSSE WI
600 AM CST WED JAN 22 2020


...SOUTHEAST MINNESOTA...


CITY           SKY/WX    TMP DP  RH WIND       PRES   REMARKS
ROCHESTER      LGT SNOW  26  23  88 S23       29.92S FOG     WCI  11
ROCHESTER/MAYO CLOUDY    27  25  93 S15G24    29.93F WCI  15
WINONA         CLOUDY    30  23  74 SW3       30.00S
AUSTIN         LGT SNOW  30  28  93 S14       29.93F WCI  20
ALBERT LEA     LGT SNOW  28  28 100 S12       29.91S WCI  18
DODGE CENTER   CLOUDY    28  27  93 S20       29.90S WCI  15
PRESTON        LGT SNOW  26  23  89 S18G25    29.95F WCI  12
OWATONNA       MIX PCPN  30  28  93 S9        29.89F WCI  22
$$

...ELSEWHERE IN MINNESOTA...


CITY           SKY/WX    TMP DP  RH WIND       PRES   REMARKS
MINNEAPOLIS    CLOUDY    31  25  78 S10       29.87F WCI  22
INTNL FALLS    CLOUDY    20  14  77 SW7       29.71S WCI  11
DULUTH         CLOUDY    19  14  81 SW14      29.78F WCI   6
RED WING       MIX PCPN  30  28  93 S7        29.91F WCI  23
REDWOOD FALLS  CLOUDY    32  29  88 S12       29.81S WCI  23
MANKATO          N/A    N/A N/A N/A MISG        N/A
WORTHINGTON    CLOUDY    33  31  92 SW23      29.79F WCI  21
FAIRMONT       CLOUDY    33  31  92 S20       29.86S WCI  21
$$

...SOUTHWEST WISCONSIN...


CITY           SKY/WX    TMP DP  RH WIND       PRES   REMARKS
LA CROSSE      CLOUDY    27  19  72 S14       30.01F WCI  16
PRAIRIE DU CHI FAIR      27  19  70 S12G17    30.09F WCI  17
BOSCOBEL       FAIR      27  18  69 SW8       30.10F WCI  19
LONE ROCK      FAIR      24  17  74 S8        30.12F WCI  15
PLATTEVILLE    FAIR      23  22  93 S14       30.12S WCI  11
FORT MC COY    CLOUDY    28  21  76 S9G16     30.02F WCI  19
CAMP DOUGLAS   MOCLDY    25  19  80 S5        30.03F WCI  19
MAUSTON-NEW LI FAIR      25  19  77 S10G20    30.03F WCI  15
VIROQUA        CLOUDY    25  22  89 S9        30.02S WCI  15
WIS DELLS      FAIR      22  18  85 S17G24    30.06F WCI   8
$$

...ELSEWHERE IN WISCONSIN...


CITY           SKY/WX    TMP DP  RH WIND       PRES   REMARKS
MILWAUKEE      CLOUDY    25  17  72 SW20G26   30.17F WCI  11
MADISON        MOCLDY    23  17  78 S13       30.12F WCI  11
GREEN BAY      FAIR      24  17  74 SW20G31   30.07F WCI  10
EAU CLAIRE     FRZ RAIN  28  23  81 SW9       29.92F WCI  19
BLACK RVR FLS  CLOUDY    28  21  75 S8        29.99F WCI  20
MEDFORD        MIX PCPN  22  19  89 S15G22    29.92S WCI   8
WAUSAU         CLOUDY    23  17  78 S14       29.94F WCI  11
WIS RAPIDS     CLOUDY    25  18  74 S14G25    30.01F WCI  13
MARSHFIELD     CLOUDY    24  17  74 S15       29.94F WCI  11
RICE LAKE      CLOUDY    31  26  82 S12       29.90F WCI  21
$$

...NORTHEAST IOWA...


CITY           SKY/WX    TMP DP  RH WIND       PRES   REMARKS
WATERLOO       CLOUDY    28  21  75 S16       30.04F WCI  16
DUBUQUE        FAIR      22  18  85 S17       30.10F WCI   8
DECORAH        CLOUDY    27  23  86 S12G20    30.01S WCI  16
MASON CITY     MIX PCPN  29  26  89 S18       29.95F WCI  16
CHARLES CITY   MIX PCPN  27  25  93 S16G23    29.99F WCI  14
OELWEIN        CLOUDY    25  25 100 S17       30.05F WCI  11
$$

...ELSEWHERE IN IOWA...


CITY           SKY/WX    TMP DP  RH WIND       PRES   REMARKS
DES MOINES     FRZ DRZL  30  23  75 S16       30.03F WCI  19
IOWA CITY      FAIR      27  19  72 S12       30.16F WCI  17
FORT DODGE     LGT SNOW  32  30  93 S18       29.94F FOG     WCI  20
MARSHALLTOWN   PTCLDY    28  24  85 S13       30.03F WCI  17
CEDAR RAPIDS   FAIR      24  20  84 S12       30.10F WCI  13
$$

...NORTHERN ILLINOIS...


CITY           SKY/WX    TMP DP  RH WIND       PRES   REMARKS
CHICAGO-OHARE  CLOUDY    25  18  74 S13       30.24S WCI  14
CHICAGO-MIDWAY CLOUDY    25  18  74 SW12G22   30.26S WCI  14
MOLINE         FAIR      26  18  71 S8G18     30.19F WCI  18
ROCKFORD       CLOUDY    23  18  81 S12       30.22F WCI  12
PEORIA         FAIR      23  20  88 S10       30.26F WCI  12
$$

NOTE: "FAIR" INDICATES FEW OR NO CLOUDS BELOW 12,000 FEET WITH NO
SIGNIFICANT WEATHER AND/OR OBSTRUCTIONS TO VISIBILITY. WIND
SPEEDS ARE IN MILES-PER-HOUR.




USA.gov is the U.S. government's official web portal to all federal, state and local government web resources and services.